Paganini — V2CL8 — position and weather

sailwx.info

Track history (hours):
 
Tides and Currents Weather Stations Pressure Air Temp Water Temp Dewpoint Dewpoint Depression Visibility Wind Speed Wind Dir Waves Ship Positions

Paganini

Last reported at 2014-Nov-26 18:30 UTC. Time now 2014-Nov-27 04:23 UTC.
Position N 47°27' W 003°33'.

Length 90 m; draft 5 m.

Type: Cargo ship. MMSI: 305040000.

Date/timePositionNaut miles runAvg speedWind from/ knotsBaromVisibWave heightAir tempDewpointWater temp
2014-Nov-26 18:30N 47°27' W 003°33'8 8.7
2014-Nov-26 17:33N 47°33' W 003°24'8 8.1
2014-Nov-26 16:34N 47°41' W 003°22'3 3.1
2014-Nov-26 15:31N 47°44' W 003°21'0 0.0
2014-Nov-26 14:31N 47°44' W 003°21'0 0.0
2014-Nov-26 13:31N 47°44' W 003°21'0 0.0
2014-Nov-26 12:31N 47°44' W 003°21'0 0.0
2014-Nov-26 11:31N 47°44' W 003°21'0 0.0
2014-Nov-26 10:31N 47°44' W 003°21'0 0.0
2014-Nov-26 09:31N 47°44' W 003°21'0 0.0
2014-Nov-26 08:31N 47°44' W 003°21'0 0.0
2014-Nov-26 07:31N 47°44' W 003°21'0 0.0
2014-Nov-26 06:31N 47°44' W 003°21'0 0.0
2014-Nov-26 05:34N 47°44' W 003°21'5 4.5
2014-Nov-26 04:33N 47°41' W 003°26'6 5.9
2014-Nov-26 03:33N 47°40' W 003°34'6 5.6
2014-Nov-26 02:33N 47°36' W 003°40'  
2014-Nov-22 03:08N 38°38' W 009°42'7 9.0
2014-Nov-22 02:22N 38°38' W 009°33'8 8.8
2014-Nov-22 01:30N 38°37' W 009°23'7 7.3
2014-Nov-22 00:33N 38°41' W 009°16'8 7.6
2014-Nov-21 23:34N 38°41' W 009°07'2 1.9
2014-Nov-21 22:32N 38°40' W 009°04'0 0.0
2014-Nov-21 21:32N 38°40' W 009°04'0 0.0
2014-Nov-21 20:32N 38°40' W 009°04'0 0.0
2014-Nov-21 19:32N 38°40' W 009°04'0 0.0
2014-Nov-21 18:32N 38°40' W 009°04'0 0.0
2014-Nov-21 17:32N 38°40' W 009°04'0 0.0
2014-Nov-21 16:32N 38°40' W 009°04'0 0.0
2014-Nov-21 15:32N 38°40' W 009°04'0 0.0
2014-Nov-21 14:29N 38°40' W 009°04'0 0.0
2014-Nov-21 13:32N 38°40' W 009°04'0 0.0
2014-Nov-21 12:32N 38°40' W 009°04'0 0.0
2014-Nov-21 11:32N 38°40' W 009°04'0 0.0
2014-Nov-21 10:32N 38°40' W 009°04'0 0.0
2014-Nov-21 09:32N 38°40' W 009°04'0 0.0
2014-Nov-21 08:32N 38°40' W 009°04'0 0.0
2014-Nov-21 07:32N 38°40' W 009°04'0 0.0
2014-Nov-21 06:32N 38°40' W 009°04'0 0.0
2014-Nov-21 05:32N 38°40' W 009°04'0 0.0
2014-Nov-21 04:32N 38°40' W 009°04'0 0.0
2014-Nov-21 03:32N 38°40' W 009°04'0 0.0
2014-Nov-21 02:32N 38°40' W 009°04'0 0.0
2014-Nov-21 01:32N 38°40' W 009°04'0 0.0
2014-Nov-21 00:32N 38°40' W 009°04'2 2.0
2014-Nov-20 23:33N 38°41' W 009°07'8 8.0
2014-Nov-20 22:32N 38°41' W 009°17'  
Track history (hours):
 
Tides and Currents Weather Stations Pressure Air Temp Water Temp Dewpoint Dewpoint Depression Visibility Wind Speed Wind Dir Waves Ship Positions

Paganini

Last reported at 2014-Nov-26 18:30 UTC. Time now 2014-Nov-27 04:23 UTC.
Position N 47°27' W 003°33'.

Length 90 m; draft 5 m.

Type: Cargo ship. MMSI: 305040000.

Date/timePositionNaut miles runAvg speedWind from/ knotsBaromVisibWave heightAir tempDewpointWater temp
2014-Nov-26 18:30N 47°27' W 003°33'8 8.7
2014-Nov-26 17:33N 47°33' W 003°24'8 8.1
2014-Nov-26 16:34N 47°41' W 003°22'3 3.1
2014-Nov-26 15:31N 47°44' W 003°21'0 0.0
2014-Nov-26 14:31N 47°44' W 003°21'0 0.0
2014-Nov-26 13:31N 47°44' W 003°21'0 0.0
2014-Nov-26 12:31N 47°44' W 003°21'0 0.0
2014-Nov-26 11:31N 47°44' W 003°21'0 0.0
2014-Nov-26 10:31N 47°44' W 003°21'0 0.0
2014-Nov-26 09:31N 47°44' W 003°21'0 0.0
2014-Nov-26 08:31N 47°44' W 003°21'0 0.0
2014-Nov-26 07:31N 47°44' W 003°21'0 0.0
2014-Nov-26 06:31N 47°44' W 003°21'0 0.0
2014-Nov-26 05:34N 47°44' W 003°21'5 4.5
2014-Nov-26 04:33N 47°41' W 003°26'6 5.9
2014-Nov-26 03:33N 47°40' W 003°34'6 5.6
2014-Nov-26 02:33N 47°36' W 003°40'  
2014-Nov-22 03:08N 38°38' W 009°42'7 9.0
2014-Nov-22 02:22N 38°38' W 009°33'8 8.8
2014-Nov-22 01:30N 38°37' W 009°23'7 7.3
2014-Nov-22 00:33N 38°41' W 009°16'8 7.6
2014-Nov-21 23:34N 38°41' W 009°07'2 1.9
2014-Nov-21 22:32N 38°40' W 009°04'0 0.0
2014-Nov-21 21:32N 38°40' W 009°04'0 0.0
2014-Nov-21 20:32N 38°40' W 009°04'0 0.0
2014-Nov-21 19:32N 38°40' W 009°04'0 0.0
2014-Nov-21 18:32N 38°40' W 009°04'0 0.0
2014-Nov-21 17:32N 38°40' W 009°04'0 0.0
2014-Nov-21 16:32N 38°40' W 009°04'0 0.0
2014-Nov-21 15:32N 38°40' W 009°04'0 0.0
2014-Nov-21 14:29N 38°40' W 009°04'0 0.0
2014-Nov-21 13:32N 38°40' W 009°04'0 0.0
2014-Nov-21 12:32N 38°40' W 009°04'0 0.0
2014-Nov-21 11:32N 38°40' W 009°04'0 0.0
2014-Nov-21 10:32N 38°40' W 009°04'0 0.0
2014-Nov-21 09:32N 38°40' W 009°04'0 0.0
2014-Nov-21 08:32N 38°40' W 009°04'0 0.0
2014-Nov-21 07:32N 38°40' W 009°04'0 0.0
2014-Nov-21 06:32N 38°40' W 009°04'0 0.0
2014-Nov-21 05:32N 38°40' W 009°04'0 0.0
2014-Nov-21 04:32N 38°40' W 009°04'0 0.0
2014-Nov-21 03:32N 38°40' W 009°04'0 0.0
2014-Nov-21 02:32N 38°40' W 009°04'0 0.0
2014-Nov-21 01:32N 38°40' W 009°04'0 0.0
2014-Nov-21 00:32N 38°40' W 009°04'2 2.0
2014-Nov-20 23:33N 38°41' W 009°07'8 8.0
2014-Nov-20 22:32N 38°41' W 009°17'  

Dump ship's entire track history